| time (UTC) | temp F | wind direction | speed MPH | gust MPH | rain 1hr in | rain 24hr in | rain mn in | humidity % | barometer mb |
| 20260510174004 | 81 | 206 | 2.0 | 8.0 | 0.00 | 0.00 | 0.00 | 44 | 1014.9 |
| 20260510173507 | 81 | 338 | 4.0 | 8.0 | 0.00 | 0.00 | 0.00 | 45 | 1015.0 |
| 20260510173016 | 80 | 163 | 1.0 | 5.0 | 0.00 | 0.00 | 0.00 | 44 | 1015.0 |
| 20260510172504 | 81 | 250 | 1.0 | 5.0 | 0.00 | 0.00 | 0.00 | 45 | 1015.1 |
| 20260510172009 | 80 | 25 | 2.0 | 4.0 | 0.00 | 0.00 | 0.00 | 46 | 1015.1 |
| 20260510171505 | 80 | 144 | 2.0 | 4.0 | 0.00 | 0.00 | 0.00 | 48 | 1015.0 |
| 20260510171001 | 80 | 281 | 1.0 | 4.0 | 0.00 | 0.00 | 0.00 | 50 | 1015.1 |
| 20260510170509 | 80 | 227 | 0.0 | 4.0 | 0.00 | 0.00 | 0.00 | 48 | 1015.1 |
| 20260510170006 | 80 | 69 | 1.0 | 5.0 | 0.00 | 0.00 | 0.00 | 47 | 1015.1 |
| 20260510165506 | 79 | 182 | 1.0 | 7.0 | 0.00 | 0.00 | 0.00 | 43 | 1015.1 |
| 20260510165003 | 78 | 123 | 2.0 | 7.0 | 0.00 | 0.00 | 0.00 | 45 | 1015.1 |
| 20260510164516 | 78 | 207 | 1.0 | 6.0 | 0.00 | 0.00 | 0.00 | 45 | 1015.1 |
| 20260510164002 | 78 | 141 | 1.0 | 4.0 | 0.00 | 0.00 | 0.00 | 43 | 1015.1 |
| 20260510163504 | 78 | 159 | 1.0 | 3.0 | 0.00 | 0.00 | 0.00 | 49 | 1015.2 |
| 20260510163016 | 78 | 223 | 0.0 | 4.0 | 0.00 | 0.00 | 0.00 | 52 | 1015.2 |
| 20260510162504 | 78 | 92 | 0.0 | 4.0 | 0.00 | 0.00 | 0.00 | 54 | 1015.3 |
| 20260510162007 | 78 | 294 | 1.0 | 4.0 | 0.00 | 0.00 | 0.00 | 53 | 1015.3 |
| 20260510161515 | 78 | 126 | 0.0 | 4.0 | 0.00 | 0.00 | 0.00 | 56 | 1015.2 |
| 20260510161002 | 78 | 105 | 0.0 | 4.0 | 0.00 | 0.00 | 0.00 | 54 | 1015.2 |
| 20260510160506 | 77 | 161 | 0.0 | 4.0 | 0.00 | 0.00 | 0.00 | 54 | 1015.3 |
| 20260510160005 | 77 | 155 | 1.0 | 6.0 | 0.00 | 0.00 | 0.00 | 54 | 1015.4 |
| 20260510155504 | 77 | 253 | 0.0 | 6.0 | 0.00 | 0.00 | 0.00 | 59 | 1015.5 |
| 20260510155005 | 76 | 74 | 1.0 | 4.0 | 0.00 | 0.00 | 0.00 | 59 | 1015.5 |
| 20260510154506 | 76 | 28 | 1.0 | 4.0 | 0.00 | 0.00 | 0.00 | 58 | 1015.6 |
| 20260510153505 | 75 | 180 | 0.0 | 3.0 | 0.00 | 0.00 | 0.00 | 63 | 1015.7 |
| 20260510153010 | 75 | 52 | 1.0 | 3.0 | 0.00 | 0.00 | 0.00 | 60 | 1015.7 |
| 20260510152503 | 74 | 130 | 0.0 | 3.0 | 0.00 | 0.00 | 0.00 | 62 | 1015.8 |
| 20260510152008 | 74 | 209 | 1.0 | 4.0 | 0.00 | 0.00 | 0.00 | 64 | 1015.7 |
| 20260510151516 | 74 | 263 | 1.0 | 5.0 | 0.00 | 0.00 | 0.00 | 63 | 1015.7 |
| 20260510151003 | 74 | 211 | 1.0 | 6.0 | 0.00 | 0.00 | 0.00 | 64 | 1015.6 |
| 20260510150510 | 74 | 52 | 1.0 | 6.0 | 0.00 | 0.00 | 0.00 | 63 | 1015.6 |
| 20260510150016 | 73 | 188 | 0.0 | 3.0 | 0.00 | 0.00 | 0.00 | 65 | 1015.5 |
| 20260510145507 | 73 | 321 | 1.0 | 5.0 | 0.00 | 0.00 | 0.00 | 65 | 1015.5 |
| 20260510144505 | 73 | 117 | 2.0 | 5.0 | 0.00 | 0.00 | 0.00 | 64 | 1015.6 |
| 20260510144009 | 72 | 200 | 1.0 | 5.0 | 0.00 | 0.00 | 0.00 | 67 | 1015.5 |
| 20260510143513 | 72 | 215 | 1.0 | 6.0 | 0.00 | 0.00 | 0.00 | 68 | 1015.6 |
| 20260510143024 | 72 | 185 | 2.0 | 6.0 | 0.00 | 0.00 | 0.00 | 67 | 1015.6 |
| 20260510142505 | 72 | 121 | 2.0 | 4.0 | 0.00 | 0.00 | 0.00 | 71 | 1015.5 |
| 20260510142004 | 71 | 87 | 1.0 | 4.0 | 0.00 | 0.00 | 0.00 | 70 | 1015.5 |
| 20260510141514 | 71 | 223 | 1.0 | 3.0 | 0.00 | 0.00 | 0.00 | 72 | 1015.5 |
| 20260510141007 | 71 | 218 | 0.0 | 6.0 | 0.00 | 0.00 | 0.00 | 72 | 1015.7 |
| 20260510140506 | 70 | 221 | 1.0 | 6.0 | 0.00 | 0.00 | 0.00 | 76 | 1015.6 |
| 20260510140013 | 70 | 213 | 3.0 | 7.0 | 0.00 | 0.00 | 0.00 | 75 | 1015.5 |
| 20260510135508 | 70 | 126 | 2.0 | 7.0 | 0.00 | 0.00 | 0.00 | 76 | 1015.6 |
| 20260510135008 | 70 | 257 | 0.0 | 4.0 | 0.00 | 0.00 | 0.00 | 78 | 1015.7 |
| 20260510134516 | 69 | 224 | 1.0 | 4.0 | 0.00 | 0.00 | 0.00 | 77 | 1015.6 |
| 20260510134011 | 69 | 236 | 0.0 | 4.0 | 0.00 | 0.00 | 0.00 | 80 | 1015.6 |
| 20260510133507 | 69 | 113 | 3.0 | 4.0 | 0.00 | 0.00 | 0.00 | 80 | 1015.6 |
| 20260510133014 | 68 | 147 | 0.0 | 4.0 | 0.00 | 0.00 | 0.00 | 81 | 1015.5 |
| 20260510132513 | 68 | 214 | 0.0 | 4.0 | 0.00 | 0.00 | 0.00 | 83 | 1015.4 |
| 20260510132007 | 68 | 288 | 0.0 | 4.0 | 0.00 | 0.00 | 0.00 | 85 | 1015.4 |
| 20260510131523 | 67 | 347 | 1.0 | 5.0 | 0.00 | 0.00 | 0.00 | 84 | 1015.4 |
| 20260510131005 | 67 | 191 | 1.0 | 5.0 | 0.00 | 0.00 | 0.00 | 84 | 1015.4 |
| 20260510130504 | 66 | 108 | 0.0 | 6.0 | 0.00 | 0.00 | 0.00 | 87 | 1015.4 |
| 20260510130016 | 66 | 138 | 1.0 | 6.0 | 0.00 | 0.00 | 0.00 | 87 | 1015.3 |
| 20260510125508 | 65 | 176 | 1.0 | 4.0 | 0.00 | 0.00 | 0.00 | 89 | 1015.2 |
| 20260510125008 | 65 | 157 | 0.0 | 2.0 | 0.00 | 0.00 | 0.00 | 91 | 1015.2 |
| 20260510124010 | 64 | 199 | 2.0 | 3.0 | 0.00 | 0.00 | 0.00 | 92 | 1015.2 |
| 20260510123510 | 63 | 360 | 0.0 | 3.0 | 0.00 | 0.00 | 0.00 | 93 | 1015.1 |
| 20260510123015 | 63 | 360 | 0.0 | 3.0 | 0.00 | 0.00 | 0.00 | 93 | 1014.9 |
| 20260510122508 | 63 | 360 | 0.0 | 3.0 | 0.00 | 0.00 | 0.00 | 94 | 1014.9 |
| 20260510122008 | 62 | 360 | 0.0 | 2.0 | 0.00 | 0.00 | 0.00 | 94 | 1014.9 |
| 20260510121517 | 62 | 360 | 0.0 | 2.0 | 0.00 | 0.00 | 0.00 | 95 | 1014.7 |
| 20260510121011 | 62 | 360 | 0.0 | 2.0 | 0.00 | 0.00 | 0.00 | 95 | 1014.7 |
| 20260510120507 | 62 | 360 | 0.0 | 2.0 | 0.00 | 0.00 | 0.00 | 95 | 1014.8 |
| 20260510120016 | 61 | 322 | 0.0 | 1.0 | 0.00 | 0.00 | 0.00 | 95 | 1014.9 |
| 20260510115505 | 60 | 322 | 0.0 | 1.0 | 0.00 | 0.00 | 0.00 | 95 | 1014.9 |
| 20260510115010 | 60 | 360 | 0.0 | 1.0 | 0.00 | 0.00 | 0.00 | 95 | 1014.7 |
| 20260510114522 | 60 | 360 | 0.0 | 2.0 | 0.00 | 0.00 | 0.00 | 95 | 1014.7 |
| 20260510114011 | 60 | 360 | 0.0 | 2.0 | 0.00 | 0.00 | 0.00 | 95 | 1014.6 |
| 20260510113506 | 59 | 360 | 0.0 | 1.0 | 0.00 | 0.00 | 0.00 | 95 | 1014.5 |
| 20260510113014 | 59 | 360 | 0.0 | 0.0 | 0.00 | 0.00 | 0.00 | 95 | 1014.4 |
| 20260510112514 | 59 | 360 | 0.0 | 0.0 | 0.00 | 0.00 | 0.00 | 95 | 1014.1 |
| 20260510112008 | 59 | 360 | 0.0 | 1.0 | 0.00 | 0.00 | 0.00 | 94 | 1014.0 |
| 20260510111509 | 59 | 360 | 0.0 | 1.0 | 0.00 | 0.00 | 0.00 | 94 | 1014.0 |
| 20260510111004 | 59 | 360 | 0.0 | 2.0 | 0.00 | 0.00 | 0.00 | 94 | 1013.9 |
| 20260510110505 | 59 | 360 | 0.0 | 2.0 | 0.00 | 0.00 | 0.00 | 94 | 1013.9 |
| 20260510110014 | 59 | 360 | 0.0 | 2.0 | 0.00 | 0.00 | 0.00 | 94 | 1013.9 |
| 20260510105504 | 58 | 360 | 0.0 | 1.0 | 0.00 | 0.00 | 0.00 | 94 | 1013.8 |
| 20260510105005 | 58 | 360 | 0.0 | 1.0 | 0.00 | 0.00 | 0.00 | 94 | 1013.6 |
| 20260510104518 | 58 | 360 | 0.0 | 1.0 | 0.00 | 0.00 | 0.00 | 94 | 1013.6 |
| 20260510104011 | 58 | 360 | 0.0 | 1.0 | 0.00 | 0.00 | 0.00 | 94 | 1013.6 |
| 20260510102508 | 59 | 360 | 0.0 | 0.0 | 0.00 | 0.00 | 0.00 | 94 | 1013.4 |
| 20260510102010 | 59 | 360 | 0.0 | 0.0 | 0.00 | 0.00 | 0.00 | 94 | 1013.3 |
| 20260510101012 | 59 | 360 | 0.0 | 0.0 | 0.00 | 0.00 | 0.00 | 94 | 1013.2 |
| 20260510100506 | 59 | 360 | 0.0 | 1.0 | 0.00 | 0.00 | 0.00 | 94 | 1013.1 |
| 20260510100026 | 59 | 360 | 0.0 | 1.0 | 0.00 | 0.00 | 0.00 | 94 | 1013.1 |
| 20260510095504 | 59 | 360 | 0.0 | 1.0 | 0.00 | 0.00 | 0.00 | 94 | 1013.1 |
| 20260510095007 | 59 | 360 | 0.0 | 1.0 | 0.00 | 0.00 | 0.00 | 94 | 1013.1 |
| 20260510094008 | 59 | 360 | 0.0 | 1.0 | 0.00 | 0.00 | 0.00 | 94 | 1013.1 |
| 20260510093017 | 59 | 360 | 0.0 | 1.0 | 0.00 | 0.00 | 0.00 | 94 | 1012.9 |
| 20260510092507 | 59 | 360 | 0.0 | 1.0 | 0.00 | 0.00 | 0.00 | 94 | 1013.0 |
| 20260510092012 | 59 | 360 | 0.0 | 2.0 | 0.00 | 0.00 | 0.00 | 94 | 1012.8 |
| 20260510091517 | 59 | 360 | 0.0 | 2.0 | 0.00 | 0.00 | 0.00 | 94 | 1012.7 |
| 20260510091007 | 59 | 360 | 1.0 | 2.0 | 0.00 | 0.00 | 0.00 | 94 | 1012.7 |
| 20260510090507 | 59 | 360 | 1.0 | 2.0 | 0.00 | 0.00 | 0.00 | 94 | 1012.6 |
| 20260510090018 | 59 | 360 | 0.0 | 1.0 | 0.00 | 0.00 | 0.00 | 94 | 1012.4 |
| 20260510085510 | 59 | 360 | 0.0 | 0.0 | 0.00 | 0.00 | 0.00 | 94 | 1012.4 |
| 20260510085005 | 59 | 360 | 0.0 | 1.0 | 0.00 | 0.00 | 0.00 | 94 | 1012.4 |
| 20260510084517 | 59 | 360 | 0.0 | 1.0 | 0.00 | 0.00 | 0.00 | 94 | 1012.3 |
| 20260510084007 | 59 | 360 | 0.0 | 1.0 | 0.00 | 0.00 | 0.00 | 94 | 1012.3 |
| 20260510083505 | 59 | 360 | 0.0 | 1.0 | 0.00 | 0.00 | 0.00 | 94 | 1012.2 |
| 20260510083021 | 59 | 360 | 0.0 | 1.0 | 0.00 | 0.00 | 0.00 | 94 | 1012.1 |
| 20260510082507 | 59 | 360 | 0.0 | 1.0 | 0.00 | 0.00 | 0.00 | 94 | 1012.3 |
| 20260510081518 | 59 | 360 | 0.0 | 0.0 | 0.00 | 0.00 | 0.00 | 94 | 1012.3 |
| 20260510080508 | 59 | 360 | 0.0 | 2.0 | 0.00 | 0.00 | 0.00 | 94 | 1012.2 |
| 20260510080025 | 59 | 360 | 0.0 | 2.0 | 0.00 | 0.00 | 0.00 | 94 | 1012.3 |
| 20260510075507 | 59 | 360 | 0.0 | 1.0 | 0.00 | 0.00 | 0.00 | 94 | 1012.3 |
| 20260510075011 | 59 | 360 | 0.0 | 0.0 | 0.00 | 0.00 | 0.00 | 94 | 1012.2 |
| 20260510074514 | 59 | 360 | 0.0 | 0.0 | 0.00 | 0.00 | 0.00 | 94 | 1012.1 |
| 20260510074003 | 59 | 360 | 0.0 | 0.0 | 0.00 | 0.00 | 0.00 | 94 | 1012.1 |
| 20260510073503 | 59 | 360 | 0.0 | 0.0 | 0.00 | 0.00 | 0.00 | 93 | 1012.1 |
| 20260510073015 | 59 | 360 | 0.0 | 0.0 | 0.00 | 0.00 | 0.00 | 93 | 1012.1 |
| 20260510072509 | 59 | 360 | 0.0 | 0.0 | 0.00 | 0.00 | 0.00 | 93 | 1012.1 |
| 20260510072010 | 59 | 360 | 0.0 | 0.0 | 0.00 | 0.00 | 0.00 | 93 | 1012.0 |
| 20260510071522 | 59 | 360 | 0.0 | 0.0 | 0.00 | 0.00 | 0.00 | 93 | 1012.1 |
| 20260510071007 | 59 | 360 | 0.0 | 0.0 | 0.00 | 0.00 | 0.00 | 93 | 1012.0 |
| 20260510070509 | 60 | 360 | 0.0 | 0.0 | 0.00 | 0.00 | 0.00 | 93 | 1012.0 |
| 20260510070016 | 60 | 360 | 0.0 | 0.0 | 0.00 | 0.00 | 0.00 | 94 | 1012.0 |
| 20260510065507 | 60 | 360 | 0.0 | 0.0 | 0.00 | 0.00 | 0.00 | 94 | 1012.0 |
| 20260510065014 | 60 | 360 | 0.0 | 1.0 | 0.00 | 0.00 | 0.00 | 94 | 1012.2 |
| 20260510064520 | 60 | 360 | 0.0 | 2.0 | 0.00 | 0.00 | 0.00 | 94 | 1012.2 |
| 20260510064010 | 60 | 360 | 0.0 | 2.0 | 0.00 | 0.00 | 0.00 | 93 | 1012.2 |
| 20260510063507 | 60 | 360 | 0.0 | 1.0 | 0.00 | 0.00 | 0.00 | 93 | 1012.2 |
| 20260510063018 | 60 | 360 | 0.0 | 1.0 | 0.00 | 0.00 | 0.00 | 93 | 1012.1 |
| 20260510062508 | 60 | 360 | 0.0 | 0.0 | 0.00 | 0.00 | 0.00 | 93 | 1012.0 |
| 20260510062014 | 60 | 360 | 0.0 | 0.0 | 0.00 | 0.00 | 0.00 | 93 | 1011.9 |
| 20260510061517 | 60 | 360 | 0.0 | 0.0 | 0.00 | 0.00 | 0.00 | 93 | 1011.8 |
| 20260510061008 | 60 | 360 | 0.0 | 0.0 | 0.00 | 0.00 | 0.00 | 93 | 1011.8 |
| 20260510060507 | 60 | 360 | 0.0 | 0.0 | 0.00 | 0.00 | 0.00 | 93 | 1011.9 |
| 20260510060017 | 60 | 360 | 0.0 | 0.0 | 0.00 | 0.00 | 0.00 | 93 | 1012.0 |
| 20260510055506 | 60 | 360 | 0.0 | 0.0 | 0.00 | 0.00 | 0.00 | 93 | 1012.1 |
| 20260510055011 | 60 | 360 | 0.0 | 0.0 | 0.00 | 0.00 | 0.00 | 93 | 1012.1 |
| 20260510054526 | 60 | 360 | 0.0 | 0.0 | 0.00 | 0.00 | 0.00 | 93 | 1012.2 |
| 20260510054014 | 60 | 360 | 0.0 | 0.0 | 0.00 | 0.00 | 0.00 | 93 | 1012.3 |
| 20260510053511 | 60 | 360 | 0.0 | 0.0 | 0.00 | 0.00 | 0.00 | 93 | 1012.3 |
| 20260510053027 | 60 | 360 | 0.0 | 0.0 | 0.00 | 0.00 | 0.00 | 93 | 1012.3 |
| 20260510052513 | 60 | 360 | 0.0 | 0.0 | 0.00 | 0.00 | 0.00 | 93 | 1012.5 |
| 20260510052011 | 60 | 360 | 0.0 | 0.0 | 0.00 | 0.00 | 0.00 | 93 | 1012.5 |
| 20260510051520 | 60 | 360 | 0.0 | 0.0 | 0.00 | 0.00 | 0.00 | 93 | 1012.5 |
| 20260510051009 | 60 | 360 | 0.0 | 0.0 | 0.00 | 0.00 | 0.00 | 93 | 1012.6 |
| 20260510050509 | 60 | 360 | 0.0 | 0.0 | 0.00 | 0.00 | 0.00 | 93 | 1012.5 |
| 20260510050023 | 60 | 360 | 0.0 | 0.0 | 0.00 | 0.00 | 0.00 | 93 | 1012.5 |
| 20260510045511 | 61 | 360 | 0.0 | 0.0 | 0.00 | 0.00 | 0.00 | 93 | 1012.5 |
| 20260510045009 | 61 | 360 | 0.0 | 0.0 | 0.00 | 0.00 | 0.00 | 93 | 1012.7 |
| 20260510044530 | 61 | 360 | 0.0 | 0.0 | 0.00 | 0.00 | 0.00 | 93 | 1012.7 |
| 20260510044012 | 61 | 360 | 0.0 | 0.0 | 0.00 | 0.00 | 0.00 | 92 | 1012.7 |
| 20260510043508 | 61 | 360 | 0.0 | 0.0 | 0.00 | 0.00 | 0.00 | 93 | 1012.6 |
| 20260510043028 | 61 | 360 | 0.0 | 1.0 | 0.00 | 0.00 | 0.00 | 93 | 1012.5 |
| 20260510042508 | 61 | 360 | 0.0 | 1.0 | 0.00 | 0.00 | 0.00 | 92 | 1012.6 |
| 20260510042009 | 61 | 360 | 0.0 | 0.0 | 0.00 | 0.00 | 0.00 | 93 | 1012.5 |
| 20260510041527 | 61 | 360 | 0.0 | 0.0 | 0.00 | 0.00 | 0.00 | 93 | 1012.5 |
| 20260510041011 | 61 | 360 | 0.0 | 0.0 | 0.00 | 0.00 | 0.00 | 92 | 1012.4 |
| 20260510040508 | 61 | 360 | 0.0 | 0.0 | 0.00 | 0.00 | 0.00 | 92 | 1012.4 |
| 20260510040019 | 61 | 360 | 0.0 | 1.0 | 0.00 | 0.00 | 0.00 | 92 | 1012.5 |
| 20260510035507 | 61 | 360 | 0.0 | 1.0 | 0.00 | 0.00 | 0.00 | 92 | 1012.5 |
| 20260510035009 | 61 | 360 | 0.0 | 0.0 | 0.00 | 0.00 | 0.00 | 92 | 1012.4 |
| 20260510034526 | 61 | 360 | 0.0 | 0.0 | 0.00 | 0.00 | 0.00 | 92 | 1012.4 |
| 20260510034009 | 61 | 360 | 0.0 | 0.0 | 0.00 | 0.00 | 0.00 | 92 | 1012.4 |
| 20260510033511 | 62 | 360 | 0.0 | 1.0 | 0.00 | 0.00 | 0.00 | 92 | 1012.4 |
| 20260510033026 | 62 | 360 | 0.0 | 1.0 | 0.00 | 0.00 | 0.00 | 92 | 1012.4 |
| 20260510032510 | 62 | 360 | 0.0 | 0.0 | 0.00 | 0.00 | 0.00 | 92 | 1012.3 |
| 20260510032009 | 62 | 360 | 0.0 | 1.0 | 0.00 | 0.00 | 0.00 | 92 | 1012.4 |
| 20260510031528 | 62 | 360 | 0.0 | 1.0 | 0.00 | 0.00 | 0.00 | 92 | 1012.3 |
| 20260510031013 | 62 | 360 | 0.0 | 1.0 | 0.00 | 0.00 | 0.00 | 92 | 1012.3 |
| 20260510030508 | 62 | 360 | 0.0 | 0.0 | 0.00 | 0.00 | 0.00 | 91 | 1012.1 |
| 20260510030025 | 62 | 360 | 0.0 | 0.0 | 0.00 | 0.00 | 0.00 | 91 | 1012.2 |
| 20260510025513 | 62 | 360 | 0.0 | 0.0 | 0.00 | 0.00 | 0.00 | 91 | 1012.2 |
| 20260510025009 | 62 | 360 | 0.0 | 0.0 | 0.00 | 0.00 | 0.00 | 91 | 1012.2 |
| 20260510024522 | 62 | 360 | 0.0 | 0.0 | 0.00 | 0.00 | 0.00 | 91 | 1012.3 |
| 20260510023503 | 63 | 360 | 0.0 | 0.0 | 0.00 | 0.00 | 0.00 | 91 | 1012.1 |
| 20260510023008 | 63 | 360 | 0.0 | 0.0 | 0.00 | 0.00 | 0.00 | 91 | 1012.1 |
| 20260510022505 | 63 | 360 | 0.0 | 1.0 | 0.00 | 0.00 | 0.00 | 91 | 1012.1 |
| 20260510022003 | 63 | 360 | 0.0 | 1.0 | 0.00 | 0.00 | 0.00 | 91 | 1012.1 |
| 20260510021511 | 63 | 360 | 0.0 | 1.0 | 0.00 | 0.00 | 0.00 | 90 | 1012.1 |
| 20260510021004 | 63 | 360 | 0.0 | 0.0 | 0.00 | 0.00 | 0.00 | 90 | 1012.1 |
| 20260510020509 | 63 | 360 | 0.0 | 1.0 | 0.00 | 0.00 | 0.00 | 90 | 1012.0 |
| 20260510020017 | 64 | 360 | 0.0 | 1.0 | 0.00 | 0.00 | 0.00 | 90 | 1011.9 |
| 20260510015504 | 64 | 360 | 0.0 | 1.0 | 0.00 | 0.00 | 0.00 | 90 | 1011.8 |
| 20260510015006 | 64 | 360 | 0.0 | 0.0 | 0.00 | 0.00 | 0.00 | 89 | 1011.9 |
| 20260510014519 | 64 | 360 | 0.0 | 1.0 | 0.00 | 0.00 | 0.00 | 89 | 1011.8 |
| 20260510014005 | 64 | 360 | 0.0 | 1.0 | 0.00 | 0.00 | 0.00 | 89 | 1011.8 |
| 20260510013509 | 65 | 360 | 0.0 | 0.0 | 0.00 | 0.00 | 0.00 | 88 | 1011.6 |
| 20260510013014 | 65 | 360 | 0.0 | 0.0 | 0.00 | 0.00 | 0.00 | 88 | 1011.4 |
| 20260510012004 | 65 | 360 | 0.0 | 0.0 | 0.00 | 0.00 | 0.00 | 87 | 1011.3 |
| 20260510011518 | 65 | 360 | 0.0 | 0.0 | 0.00 | 0.00 | 0.00 | 86 | 1011.2 |
| 20260510011006 | 66 | 360 | 0.0 | 0.0 | 0.00 | 0.00 | 0.00 | 86 | 1011.1 |
| 20260510010014 | 66 | 360 | 0.0 | 0.0 | 0.00 | 0.00 | 0.00 | 86 | 1011.1 |
| 20260510005503 | 66 | 360 | 0.0 | 1.0 | 0.00 | 0.00 | 0.00 | 85 | 1011.1 |
| 20260510005006 | 67 | 360 | 0.0 | 1.0 | 0.00 | 0.00 | 0.00 | 84 | 1011.1 |
| 20260510004005 | 67 | 360 | 0.0 | 0.0 | 0.00 | 0.00 | 0.00 | 84 | 1011.0 |
| 20260510003506 | 67 | 360 | 0.0 | 0.0 | 0.00 | 0.00 | 0.00 | 83 | 1011.0 |
| 20260510003023 | 68 | 360 | 0.0 | 0.0 | 0.00 | 0.00 | 0.00 | 83 | 1010.9 |
| 20260510002010 | 68 | 360 | 0.0 | 0.0 | 0.00 | 0.00 | 0.00 | 81 | 1011.0 |
| 20260510001516 | 69 | 360 | 0.0 | 0.0 | 0.00 | 0.00 | 0.00 | 80 | 1011.0 |
| 20260510001003 | 69 | 360 | 0.0 | 0.0 | 0.00 | 0.00 | 0.00 | 80 | 1011.1 |
| 20260510000504 | 69 | 360 | 0.0 | 0.0 | 0.00 | 0.00 | 0.00 | 79 | 1011.1 |
| 20260510000015 | 70 | 360 | 0.0 | 0.0 | 0.00 | 0.00 | 0.00 | 78 | 1011.0 |
| 20260509235507 | 70 | 360 | 0.0 | 0.0 | 0.00 | 0.00 | 0.00 | 77 | 1010.9 |
| 20260509235010 | 71 | 360 | 0.0 | 0.0 | 0.00 | 0.00 | 0.00 | 77 | 1010.9 |
| 20260509234519 | 71 | 360 | 0.0 | 0.0 | 0.00 | 0.00 | 0.00 | 76 | 1010.9 |
| 20260509234003 | 71 | 360 | 0.0 | 0.0 | 0.00 | 0.00 | 0.00 | 76 | 1010.8 |
| 20260509233509 | 71 | 360 | 0.0 | 1.0 | 0.00 | 0.00 | 0.00 | 75 | 1010.8 |
| 20260509233019 | 72 | 360 | 0.0 | 1.0 | 0.00 | 0.00 | 0.00 | 75 | 1010.8 |
| 20260509232503 | 72 | 360 | 0.0 | 1.0 | 0.00 | 0.00 | 0.00 | 75 | 1010.5 |
| 20260509232011 | 72 | 360 | 0.0 | 1.0 | 0.00 | 0.00 | 0.00 | 75 | 1010.3 |
| 20260509231520 | 72 | 360 | 0.0 | 1.0 | 0.00 | 0.00 | 0.00 | 75 | 1010.3 |
| 20260509230507 | 72 | 16 | 0.0 | 1.0 | 0.00 | 0.00 | 0.00 | 74 | 1010.4 |
| 20260509230018 | 72 | 16 | 0.0 | 1.0 | 0.00 | 0.00 | 0.00 | 73 | 1010.2 |
| 20260509225504 | 73 | 16 | 0.0 | 3.0 | 0.00 | 0.00 | 0.00 | 73 | 1010.2 |
| 20260509224517 | 73 | 347 | 0.0 | 2.0 | 0.00 | 0.00 | 0.00 | 74 | 1010.1 |
| 20260509224006 | 73 | 40 | 0.0 | 2.0 | 0.00 | 0.00 | 0.00 | 73 | 1010.1 |
| 20260509223506 | 73 | 82 | 0.0 | 2.0 | 0.00 | 0.00 | 0.00 | 72 | 1010.1 |
| 20260509222507 | 73 | 82 | 0.0 | 3.0 | 0.00 | 0.00 | 0.00 | 73 | 1010.2 |
| 20260509222008 | 73 | 333 | 0.0 | 2.0 | 0.00 | 0.00 | 0.00 | 73 | 1010.2 |
| 20260509221518 | 73 | 309 | 0.0 | 3.0 | 0.00 | 0.00 | 0.00 | 73 | 1010.1 |
| 20260509221009 | 73 | 313 | 0.0 | 3.0 | 0.00 | 0.00 | 0.00 | 73 | 1010.2 |
| 20260509220510 | 73 | 200 | 0.0 | 3.0 | 0.00 | 0.00 | 0.00 | 73 | 1010.2 |
| 20260509220015 | 73 | 352 | 0.0 | 3.0 | 0.00 | 0.00 | 0.00 | 72 | 1010.3 |
| 20260509215511 | 73 | 49 | 0.0 | 2.0 | 0.00 | 0.00 | 0.00 | 72 | 1010.3 |
| 20260509215010 | 73 | 309 | 0.0 | 3.0 | 0.00 | 0.00 | 0.00 | 73 | 1010.3 |
| 20260509214520 | 73 | 263 | 0.0 | 3.0 | 0.00 | 0.00 | 0.00 | 73 | 1010.3 |
| 20260509214007 | 72 | 287 | 0.0 | 4.0 | 0.00 | 0.00 | 0.00 | 73 | 1010.4 |
| 20260509213506 | 72 | 312 | 1.0 | 4.0 | 0.00 | 0.00 | 0.00 | 72 | 1010.3 |
| 20260509213018 | 72 | 198 | 0.0 | 3.0 | 0.00 | 0.00 | 0.00 | 72 | 1010.2 |
| 20260509212506 | 73 | 264 | 1.0 | 3.0 | 0.00 | 0.00 | 0.00 | 72 | 1010.3 |
| 20260509211519 | 72 | 109 | 1.0 | 4.0 | 0.00 | 0.00 | 0.00 | 71 | 1010.2 |
| 20260509211009 | 72 | 309 | 2.0 | 4.0 | 0.00 | 0.00 | 0.00 | 72 | 1010.2 |
| 20260509210510 | 73 | 141 | 1.0 | 4.0 | 0.00 | 0.00 | 0.00 | 72 | 1010.2 |
| 20260509210018 | 73 | 57 | 0.0 | 5.0 | 0.00 | 0.00 | 0.00 | 71 | 1010.3 |
| 20260509205510 | 73 | 91 | 0.0 | 5.0 | 0.00 | 0.00 | 0.00 | 73 | 1010.2 |
| 20260509205009 | 72 | 332 | 1.0 | 4.0 | 0.00 | 0.00 | 0.00 | 73 | 1010.0 |
| 20260509204524 | 72 | 138 | 0.0 | 2.0 | 0.00 | 0.00 | 0.00 | 72 | 1010.0 |
| 20260509204007 | 72 | 360 | 0.0 | 2.0 | 0.00 | 0.00 | 0.00 | 73 | 1010.0 |
| 20260509203503 | 72 | 360 | 1.0 | 4.0 | 0.00 | 0.00 | 0.00 | 72 | 1010.2 |
| 20260509203007 | 72 | 94 | 0.0 | 4.0 | 0.00 | 0.00 | 0.00 | 71 | 1010.2 |
| 20260509202503 | 72 | 66 | 1.0 | 5.0 | 0.00 | 0.00 | 0.00 | 71 | 1010.1 |
| 20260509202002 | 72 | 31 | 1.0 | 5.0 | 0.00 | 0.00 | 0.00 | 71 | 1010.0 |
| 20260509201503 | 72 | 267 | 1.0 | 3.0 | 0.00 | 0.00 | 0.00 | 71 | 1010.3 |
| 20260509201004 | 72 | 11 | 0.0 | 5.0 | 0.00 | 0.00 | 0.00 | 72 | 1010.3 |
| 20260509200503 | 72 | 311 | 2.0 | 7.0 | 0.00 | 0.00 | 0.00 | 73 | 1010.3 |
| 20260509195002 | 72 | 253 | 1.0 | 5.0 | 0.00 | 0.00 | 0.00 | 72 | 1010.4 |
| 20260509194003 | 71 | 94 | 1.0 | 4.0 | 0.00 | 0.00 | 0.00 | 72 | 1010.5 |
| 20260509193504 | 71 | 275 | 0.0 | 6.0 | 0.00 | 0.00 | 0.00 | 72 | 1010.5 |
| 20260509193008 | 72 | 121 | 3.0 | 6.0 | 0.00 | 0.00 | 0.00 | 71 | 1010.5 |
| 20260509192502 | 72 | 360 | 3.0 | 6.0 | 0.00 | 0.00 | 0.00 | 69 | 1010.7 |
| 20260509192004 | 73 | 234 | 0.0 | 2.0 | 0.00 | 0.00 | 0.00 | 69 | 1010.8 |
| 20260509191517 | 73 | 169 | 0.0 | 2.0 | 0.00 | 0.00 | 0.00 | 66 | 1010.8 |
| 20260509191003 | 73 | 77 | 0.0 | 3.0 | 0.00 | 0.00 | 0.00 | 67 | 1010.6 |
| 20260509190503 | 73 | 59 | 0.0 | 5.0 | 0.00 | 0.00 | 0.00 | 68 | 1010.6 |
| 20260509190006 | 73 | 276 | 1.0 | 5.0 | 0.00 | 0.00 | 0.00 | 67 | 1010.5 |
| 20260509185503 | 72 | 5 | 1.0 | 4.0 | 0.00 | 0.00 | 0.00 | 68 | 1010.4 |
| 20260509185002 | 72 | 222 | 1.0 | 4.0 | 0.00 | 0.00 | 0.00 | 68 | 1010.7 |
| 20260509184004 | 71 | 28 | 0.0 | 3.0 | 0.00 | 0.00 | 0.00 | 71 | 1010.9 |
| 20260509183503 | 71 | 305 | 0.0 | 3.0 | 0.00 | 0.00 | 0.00 | 70 | 1010.9 |
| 20260509182507 | 71 | 137 | 1.0 | 7.0 | 0.00 | 0.00 | 0.00 | 68 | 1010.9 |
| 20260509182008 | 72 | 19 | 0.0 | 7.0 | 0.00 | 0.00 | 0.00 | 68 | 1011.1 |
| 20260509181512 | 72 | 26 | 0.0 | 6.0 | 0.00 | 0.00 | 0.00 | 69 | 1011.0 |
| 20260509181004 | 72 | 110 | 1.0 | 6.0 | 0.00 | 0.00 | 0.00 | 67 | 1011.2 |
| 20260509180503 | 72 | 320 | 0.0 | 8.0 | 0.00 | 0.00 | 0.00 | 68 | 1011.2 |
| 20260509180013 | 72 | 37 | 1.0 | 8.0 | 0.00 | 0.00 | 0.00 | 68 | 1011.4 |
| 20260509175503 | 71 | 321 | 2.0 | 8.0 | 0.00 | 0.00 | 0.00 | 68 | 1011.4 |
| 20260509175006 | 72 | 325 | 2.0 | 8.0 | 0.00 | 0.00 | 0.00 | 66 | 1011.6 |
| 20260509174506 | 71 | 360 | 1.0 | 8.0 | 0.00 | 0.00 | 0.00 | 67 | 1011.5 |